Location: Waco, TX
(31.5480°N, 97.1670°W)
Time: 17:58:32
(UTC-06:00)

ISS - Visible Passes

Search period start: 02 December 2022 00:00
Search period end: 12 December 2022 00:00
Orbit: 414 x 420 km, 51.6° (Epoch: 02 December)

Date Brightness Start Highest point End Pass type
(mag) Time Alt. Az. Time Alt. Az. Time Alt. Az.
03 Dec -1.3 18:41:47 10° N 18:42:10 11° N 18:42:10 11° N visible
04 Dec -0.9 19:29:13 10° NW 19:29:34 13° NW 19:29:34 13° NW visible
05 Dec -3.2 18:41:12 10° NNW 18:44:17 38° NE 18:44:17 38° NE visible
06 Dec -2.4 17:53:25 10° NNW 17:56:05 22° NE 17:58:44 10° E visible
06 Dec -1.6 19:29:57 10° WNW 19:32:26 25° WSW 19:32:26 25° WSW visible
07 Dec -3.0 18:41:25 10° NW 18:44:41 53° SW 18:47:56 10° SSE visible
08 Dec -3.8 17:53:09 10° NW 17:56:29 71° NE 17:59:48 10° SE visible
09 Dec -0.5 18:42:47 10° W 18:44:41 14° SW 18:46:36 10° SSW visible
10 Dec -1.3 17:53:39 10° WNW 17:56:34 28° SW 17:59:27 10° S visible
